Regional Weather Roundup
Issued by NWS Newport/Morehead, NC

Current Version | Previous Version | Graphics & Text | Print | Product List | Glossary Off
Versions: 1 2 3 4 5 6 7 8 9 10 11 12 13 14 15 16 17 18 19 20 21 22 23 24 25 26 27 28 29 30 31 32 33 34 35 36 37 38 39 40 41 42 43 44 45 46 47 48 49 50

000
ASUS42 KMHX 170610
RWRMHX
WEATHER ROUNDUP FOR EASTERN NORTH CAROLINA
NATIONAL WEATHER SERVICE NEWPORT/MOREHEAD CITY NC
200 AM EDT WED SEP 17 2014

NOTE: "FAIR" INDICATES FEW OR NO CLOUDS BELOW 12,000 FEET
WITH NO SIGNIFICANT WEATHER AND/OR OBSTRUCTIONS TO VISIBILITY

NCZ015>017-031-032-045>047-102-103-170700-
NORTH COAST

CITY           SKY/WX    TMP DP  RH WIND       PRES   REMARKS
EDENTON        NOT AVBL
ELIZABETH CITY CLOUDY    70  64  81 NE5       29.97F
KITTY HAWK     MOCLDY    72  63  74 CALM      29.96F
MANTEO         MOCLDY    71  64  79 NE6       29.97F

$$

NCZ045>047-081-094-103-104-170700-
CENTRAL COAST

CITY           SKY/WX    TMP DP  RH WIND       PRES   REMARKS
FRISCO         MOCLDY    68  66  93 NE6       29.94F
SWANQUARTER      N/A     72 N/A N/A NE3G9     29.91S

$$

NCZ095-097-098-100-101-170700-
SOUTHERN COAST

CITY           SKY/WX    TMP DP  RH WIND       PRES   REMARKS
BEAUFORT       CLOUDY    73  70  90 CALM      29.94S
CEDAR ISLAND     N/A     75 N/A N/A N9        29.97F
JACKSONVILLE   MOCLDY    72  68  87 W6        29.93F
NEWPORT        NOT AVBL
PINEY ISLAND   PTCLDY    77  71  82 N6        29.93F
WILMINGTON     LGT RAIN  69  63  81 N7G24     29.97R


$$

NCZ011>013-027>030-043-044-078>080-089-090>093-098-170700-
COASTAL PLAIN

CITY           SKY/WX    TMP DP  RH WIND       PRES   REMARKS
AHOSKIE        CLOUDY    66  64  90 CALM      29.99R
CLINTON        CLOUDY    66  66 100 NW5       29.99R
ELIZABETHTOWN  CLOUDY    66  65  97 SW6       29.97S
GOLDSBORO      LGT RAIN  72  70  94 W13       29.93S
GREENVILLE     CLOUDY    70  68  94 E5        29.98S
HAVELOCK       PTCLDY    72  69  90 NW6       29.94F
KENANSVILLE    LGT RAIN  67  66  95 CALM      29.95S
KINSTON        CLOUDY    71  70  97 NE5       29.94F
NEW BERN       MOCLDY    72  69  90 NE5       29.96S
RICHLANDS      CLOUDY    70  64  83 S12       29.94F
ROANOKE RAPIDS NOT AVBL
ROCKY MOUNT    CLOUDY    71  67  87 CALM      29.96S
WASHINGTON     CLOUDY    69  66  89 NE5       29.97R
WHITEVILLE     CLOUDY    68  64  86 CALM      29.99R

$$

AMZ130-135-150-152-154-156-158-170-250-252-270-ANZ085-086-088-633-658-670-170700-
MARINE OBSERVATIONS

STATION/POSITION TIME  TEMP    WIND        PRES    WAVE   SWELL
                       AIR SEA DIR/SP/G            HT/PER HT/PER
                 (UTC) (F)     (DEG/KT/KT) (MB)    (FT/S) (FT/S)
CHESAPEAKE LIGHT 0500   72      80/  9/ 10 1016.5
BUOY 44014       0600   74 78   70/ 10/ 12 1014.4    2/16   2/16
DUCK             0600   74 77   50/  9/ 10 1014.2
2E DUCK          0600                        N/A     2/17   2/17
OREGON INLET     0600   74 76   50/  6/  9 1014.5
BUOY 44095       0600      77                N/A     2/13   2/13
20E OREGON INLET NOT AVBL
HATTERAS CG      0600   73 80   60/  4/  5 1014.3
DIAMOND BUOY     0600   76     360/  8/ 12 1013.8    3/12   2/12
CAPE LOOKOUT     0500   78     200/  6/  7 1013.6
BEAUFORT LAB     0600   73 80  160/  2/  5 1013.3
30 SE NEW RIVER  0600   80 81  230/  8/  8 1013.8    2/12   2/12
5 SE WRIGHTSVILL 0500   76 81  290/  4/  6   N/A
BUOY 41002       0540   79 82  220/ 10/ 12 1013.9    5/15   5/15
BUOY 41004       0600   79 83  190/ 12/ 14 1012.5    2/13   2/13

$$



USA.gov is the U.S. government's official web portal to all federal, state and local government web resources and services.